Change the Weather History Date:

Friday, November 8, 2013

  Actual Average (KBIV) Record (KBIV)
Temperature  
Mean Temperature 40 °F 45 °F  
Max Temperature 44 °F 52 °F 66 °F (2010)
Min Temperature 37 °F 37 °F 19 °F (1971)
Degree Days  
Heating Degree Days 25 20  
Month to date heating degree days 152  
Since 1 July heating degree days 677  
Cooling Degree Days 0 0  
Month to date cooling degree days 0  
Year to date cooling degree days 693  
Moisture  
Dew Point 28 °F    
Average Humidity 61    
Maximum Humidity 81    
Minimum Humidity 53    
Precipitation  
Precipitation 0.00 in 0.12 in 0.73 in (2011)
Month to date precipitation 1.16  
Year to date precipitation 31.86  
Sea Level Pressure  
Sea Level Pressure 30.21 in    
Wind  
Wind Speed 8 mph (West)    
Max Wind Speed 14 mph    
Max Gust Speed 23 mph    
Visibility 9 miles    
Events      
T = Trace of Precipitation, MM = Missing Value Source: NWS Daily Summary

Daily Weather History Graph

Daily Weather History Graph

Search for Another Location

Airport or City:

Trip Planner

Search our weather history database for the weather conditions in past years. The results will help you decide how hot, cold, wet, or windy it might be!

Date:

Astronomy

Nov. 08, 2013 Rise Set
Actual Time 7:27 AM EST 5:29 PM EST
Civil Twilight 6:57 AM EST 5:59 PM EST
Nautical Twilight 6:24 AM EST 6:32 PM EST
Astronomical Twilight 5:51 AM EST 7:05 PM EST
Moon 12:22 PM EST (11/8) 10:50 PM EST (11/8)
Length of Visible Light 11h 01m
Length of Day
10h 02m
Waxing Crescent, 33% of the Moon is Illuminated
Nov 8
Waxing Crescent
Nov 10
First Quarter
Nov 17
Full
Nov 25
Last Quarter
Dec 2
New

Hourly Weather History & Observations

Time (EST) Temp. Windchill Dew Point Humidity Pressure Visibility Wind Dir Wind Speed Gust Speed Precip Events Conditions
12:15 AM 37.6 °F 31.0 °F 32.4 °F 81% 30.17 in 10.0 mi NW 9.2 mph 18.4 mph N/A   Overcast
12:35 AM 38.7 °F 31.8 °F 32.4 °F 78% 30.17 in 10.0 mi NNW 10.4 mph 17.3 mph N/A   Mostly Cloudy
12:55 AM 39.4 °F 31.8 °F 30.7 °F 71% 30.16 in 10.0 mi NW 12.7 mph 20.7 mph N/A   Mostly Cloudy
1:15 AM 40.1 °F 33.2 °F 30.6 °F 69% 30.17 in 10.0 mi NW 11.5 mph 23.0 mph N/A   Overcast
1:34 AM 39.9 °F 33.4 °F 29.5 °F 66% 30.17 in 10.0 mi NW 10.4 mph 18.4 mph N/A   Mostly Cloudy
1:55 AM 40.1 °F 32.7 °F 28.4 °F 63% 30.17 in 10.0 mi NW 12.7 mph 19.6 mph N/A   Mostly Cloudy
2:15 AM 39.9 °F 32.1 °F 27.7 °F 62% 30.18 in 10.0 mi NW 13.8 mph 21.9 mph N/A   Mostly Cloudy
2:34 AM 39.7 °F 32.7 °F 28.2 °F 63% 30.18 in 10.0 mi NW 11.5 mph 17.3 mph N/A   Mostly Cloudy
2:55 AM 39.7 °F 32.3 °F 28.0 °F 63% 30.19 in 10.0 mi NW 12.7 mph 20.7 mph N/A   Overcast
3:15 AM 39.2 °F 32.0 °F 26.2 °F 60% 30.19 in 10.0 mi NW 11.5 mph 18.4 mph N/A   Mostly Cloudy
3:34 AM 38.7 °F 34.3 °F 24.8 °F 58% 30.19 in 10.0 mi WNW 5.8 mph - N/A   Mostly Cloudy
3:55 AM 38.7 °F 31.4 °F 24.8 °F 58% 30.20 in 10.0 mi NW 11.5 mph - N/A   Mostly Cloudy
4:15 AM 38.5 °F 34.1 °F 24.4 °F 57% 30.19 in 10.0 mi NW 5.8 mph - N/A   Mostly Cloudy
4:34 AM 38.5 °F 32.1 °F 25.7 °F 60% 30.20 in 10.0 mi WNW 9.2 mph 18.4 mph N/A   Mostly Cloudy
4:55 AM 38.3 °F 31.9 °F 24.8 °F 58% 30.21 in 10.0 mi NW 9.2 mph - N/A   Scattered Clouds
5:15 AM 38.5 °F 32.7 °F 25.7 °F 60% 30.22 in 10.0 mi WNW 8.1 mph - N/A   Mostly Cloudy
5:35 AM 38.5 °F 33.4 °F 25.9 °F 61% 30.22 in 10.0 mi WNW 6.9 mph - N/A   Mostly Cloudy
5:55 AM 37.9 °F 34.4 °F 25.0 °F 60% 30.23 in 10.0 mi NW 4.6 mph - N/A   Mostly Cloudy
6:15 AM 38.5 °F 32.7 °F 26.2 °F 61% 30.23 in 10.0 mi NW 8.1 mph - N/A   Mostly Cloudy
6:35 AM 38.3 °F 33.2 °F 24.8 °F 58% 30.24 in 10.0 mi NW 6.9 mph - N/A   Mostly Cloudy
6:55 AM 38.3 °F 33.2 °F 24.4 °F 57% 30.24 in 10.0 mi NW 6.9 mph - N/A   Mostly Cloudy
7:15 AM 37.8 °F 31.8 °F 24.1 °F 58% 30.25 in 10.0 mi NW 8.1 mph - N/A   Scattered Clouds
7:35 AM 37.6 °F 32.3 °F 24.4 °F 59% 30.26 in 10.0 mi NW 6.9 mph - N/A   Scattered Clouds
7:55 AM 38.3 °F 31.9 °F 24.3 °F 57% 30.27 in 10.0 mi NW 9.2 mph - N/A   Scattered Clouds
8:15 AM 39.0 °F 34.0 °F 25.0 °F 57% 30.28 in 10.0 mi WNW 6.9 mph - N/A   Mostly Cloudy
8:35 AM 39.7 °F 34.9 °F 24.8 °F 55% 30.28 in 10.0 mi WNW 6.9 mph - N/A   Mostly Cloudy
8:55 AM 39.7 °F 34.9 °F 25.2 °F 56% 30.29 in 10.0 mi NNW 6.9 mph - N/A   Mostly Cloudy
9:15 AM 41.0 °F 36.4 °F 26.4 °F 56% 30.29 in 10.0 mi WNW 6.9 mph - N/A   Mostly Cloudy
9:35 AM 40.1 °F 35.3 °F 26.4 °F 58% 30.30 in 10.0 mi WNW 6.9 mph - N/A   Mostly Cloudy
9:55 AM 40.8 °F 36.2 °F 25.3 °F 54% 30.30 in 10.0 mi WNW 6.9 mph - N/A   Scattered Clouds
10:15 AM 41.2 °F 35.5 °F 26.2 °F 55% 30.30 in 10.0 mi NW 9.2 mph - N/A   Mostly Cloudy
10:35 AM 41.7 °F 38.8 °F 26.6 °F 55% 30.30 in 10.0 mi West 4.6 mph - N/A   Mostly Cloudy
10:55 AM 41.4 °F 38.4 °F 26.4 °F 55% 30.30 in 10.0 mi NW 4.6 mph - N/A   Scattered Clouds
11:15 AM 42.8 °F 40.1 °F 27.7 °F 55% 30.30 in 10.0 mi West 4.6 mph - N/A   Scattered Clouds
11:35 AM 42.6 °F 40.9 °F 26.6 °F 53% 30.30 in 10.0 mi WNW 3.5 mph - N/A   Clear
11:55 AM 42.8 °F 38.0 °F 27.5 °F 55% 30.30 in 10.0 mi WNW 8.1 mph - N/A   Clear
12:15 PM 43.0 °F 41.3 °F 28.4 °F 56% 30.28 in 10.0 mi SW 3.5 mph - N/A   Clear
12:35 PM 41.9 °F 38.2 °F 28.0 °F 58% 30.27 in 10.0 mi WSW 5.8 mph - N/A   Scattered Clouds
12:55 PM 43.3 °F 40.7 °F 28.6 °F 56% 30.26 in 10.0 mi West 4.6 mph - N/A   Scattered Clouds
1:15 PM 43.7 °F 39.1 °F 27.3 °F 53% 30.26 in 10.0 mi West 8.1 mph - N/A   Clear
1:34 PM 43.5 °F 37.9 °F 27.7 °F 54% 30.25 in 10.0 mi WSW 10.4 mph - N/A   Clear
1:55 PM 43.9 °F 39.9 °F 28.2 °F 54% 30.24 in 10.0 mi West 6.9 mph - N/A   Clear
2:15 PM 43.2 °F 40.5 °F 27.3 °F 54% 30.24 in 10.0 mi SW 4.6 mph - N/A   Clear
2:35 PM 43.5 °F 39.4 °F 28.0 °F 54% 30.23 in 10.0 mi WSW 6.9 mph - N/A   Clear
2:55 PM 43.2 °F 38.4 °F 28.2 °F 56% 30.23 in 10.0 mi WSW 8.1 mph - N/A   Clear
3:15 PM 42.4 °F 37.5 °F 28.0 °F 57% 30.23 in 10.0 mi WSW 8.1 mph - N/A   Clear
3:35 PM 42.8 °F 39.3 °F 28.8 °F 58% 30.22 in 10.0 mi SW 5.8 mph - N/A   Clear
3:55 PM 42.6 °F 39.0 °F 29.1 °F 59% 30.21 in 10.0 mi WSW 5.8 mph - N/A   Clear
4:14 PM 42.8 °F 41.1 °F 28.8 °F 58% 30.21 in 10.0 mi SW 3.5 mph - N/A   Clear
4:35 PM 42.6 °F - 28.8 °F 58% 30.20 in 10.0 mi Calm Calm - N/A   Clear
4:55 PM 42.3 °F - 29.8 °F 61% 30.19 in 10.0 mi Calm Calm - N/A   Clear
5:14 PM 42.1 °F - 29.5 °F 61% 30.19 in 10.0 mi Calm Calm - N/A   Scattered Clouds
5:35 PM 41.2 °F - 30.7 °F 66% 30.19 in 10.0 mi Calm Calm - N/A   Scattered Clouds
5:55 PM 40.1 °F - 31.6 °F 72% 30.19 in 10.0 mi Calm Calm - N/A   Scattered Clouds
6:14 PM 38.7 °F - 30.4 °F 72% 30.18 in 10.0 mi Calm Calm - N/A   Clear
6:35 PM 37.9 °F - 30.7 °F 75% 30.18 in 7.0 mi Calm Calm - N/A   Clear
6:54 PM 39.7 °F 37.6 °F 30.4 °F 69% 30.16 in 10.0 mi SE 3.5 mph - N/A   Mostly Cloudy
7:15 PM 41.4 °F 38.4 °F 30.2 °F 65% 30.15 in 10.0 mi SSE 4.6 mph - N/A   Overcast
7:35 PM 41.9 °F 38.2 °F 31.5 °F 66% 30.16 in 10.0 mi South 5.8 mph - N/A   Overcast
7:55 PM 41.9 °F 37.5 °F 31.5 °F 66% 30.15 in 3.0 mi South 6.9 mph - N/A   Haze
8:15 PM 42.3 °F 39.4 °F 31.1 °F 65% 30.14 in 7.0 mi SE 4.6 mph - N/A   Clear
8:34 PM 42.1 °F 40.2 °F 30.9 °F 65% 30.12 in 10.0 mi SE 3.5 mph - N/A   Clear
8:55 PM 42.1 °F 39.2 °F 30.9 °F 65% 30.13 in 10.0 mi SSE 4.6 mph - N/A   Clear
9:15 PM 42.1 °F 39.2 °F 31.1 °F 65% 30.13 in 4.0 mi South 4.6 mph - N/A   Haze
9:35 PM 41.9 °F 38.2 °F 31.3 °F 66% 30.12 in 4.0 mi SSE 5.8 mph - N/A   Haze
9:55 PM 41.9 °F 39.0 °F 31.6 °F 67% 30.12 in 5.0 mi SSE 4.6 mph - N/A   Haze
10:14 PM 41.7 °F - 31.6 °F 67% 30.12 in 5.0 mi Calm Calm - N/A   Haze
10:35 PM 41.4 °F 38.4 °F 31.1 °F 67% 30.11 in 10.0 mi SE 4.6 mph - N/A   Clear
10:55 PM 41.9 °F 39.0 °F 31.5 °F 66% 30.10 in 10.0 mi SSE 4.6 mph - N/A   Clear
11:14 PM 42.1 °F 38.4 °F 31.1 °F 65% 30.09 in 10.0 mi SSE 5.8 mph - N/A   Scattered Clouds
11:35 PM 42.4 °F 38.8 °F 31.1 °F 64% 30.08 in 7.0 mi SSE 5.8 mph - N/A   Scattered Clouds
11:55 PM 42.8 °F 39.3 °F 31.5 °F 64% 30.07 in 4.0 mi SSE 5.8 mph - N/A   Haze